Location: Newark
(36.1358°N, 115.1208°W)
Time: 10:45:17
(UTC+00:00)

A-11 Canister half - All Passes

Search period start: 19 February 2020 00:00
Search period end: 29 February 2020 00:00
Orbit: 1525 x 1684 km, 47.3° (Epoch: 18 February)

Date Brightness Start Highest point End Pass type
(mag) Time Alt. Az. Time Alt. Az. Time Alt. Az.
19 Feb - 01:55:05 10° WNW 02:03:50 47° SW 02:12:49 10° SSE visible
19 Feb - 15:11:33 10° SSE 15:15:40 13° ESE 15:19:43 10° E daylight
19 Feb - 17:10:01 10° SSW 17:19:18 59° SE 17:28:23 10° ENE daylight
19 Feb - 19:15:09 10° WSW 19:24:24 58° NNW 19:33:34 10° NE daylight
19 Feb - 21:22:14 10° WNW 21:30:58 42° N 21:39:41 10° ENE daylight
19 Feb - 23:28:08 10° NW 23:37:22 64° NNE 23:46:44 10° ESE daylight
20 Feb - 01:33:24 10° WNW 01:42:15 50° SW 01:51:18 10° SSE visible
20 Feb - 14:50:43 10° SE 14:54:06 12° ESE 14:57:27 10° E daylight
20 Feb - 16:48:27 10° SSW 16:57:42 56° SE 17:06:43 10° ENE daylight
20 Feb - 18:53:26 10° WSW 19:02:44 60° NNW 19:11:55 10° NE daylight
20 Feb - 21:00:31 10° WNW 21:09:15 42° N 21:17:58 10° ENE daylight
20 Feb - 23:06:29 10° NW 23:15:42 62° NNE 23:25:01 10° ESE daylight
21 Feb - 01:11:43 10° WNW 01:20:39 52° SW 01:29:45 10° SSE daylight
21 Feb - 03:22:23 10° WSW 03:24:09 11° WSW 03:25:55 10° SW visible
21 Feb - 14:30:11 10° SE 14:32:32 11° ESE 14:34:54 10° ESE daylight
21 Feb - 16:26:53 10° SSW 16:36:05 53° SE 16:45:04 10° ENE daylight
21 Feb - 18:31:42 10° WSW 18:41:03 62° NNW 18:50:16 10° NE daylight
21 Feb - 20:38:47 10° WNW 20:47:32 42° N 20:56:14 10° ENE daylight
21 Feb - 22:44:51 10° NW 22:54:02 60° NNE 23:03:18 10° ESE daylight
22 Feb - 00:50:04 10° WNW 00:59:02 55° SW 01:08:12 10° SSE daylight
22 Feb - 02:59:37 10° WSW 03:02:35 12° WSW 03:05:36 10° SW visible
22 Feb - 16:05:20 10° SSW 16:14:29 51° SE 16:23:24 10° ENE daylight
22 Feb - 18:09:58 10° WSW 18:19:23 64° NNW 18:28:38 10° NE daylight
22 Feb - 20:17:03 10° WNW 20:25:49 42° N 20:34:31 10° ENE daylight
22 Feb - 22:23:12 10° NW 22:32:21 58° NNE 22:41:35 10° ESE daylight
23 Feb - 00:28:24 10° WNW 00:37:26 58° SW 00:46:38 10° SSE daylight
23 Feb - 02:37:15 10° W 02:41:02 13° WSW 02:44:51 10° SSW visible
23 Feb - 15:43:48 10° SSW 15:52:53 48° SE 16:01:43 10° ENE daylight
23 Feb - 17:48:15 10° WSW 17:57:43 66° NNW 18:06:59 10° NE daylight
23 Feb - 19:55:19 10° WNW 20:04:06 42° N 20:12:48 10° ENE daylight
23 Feb - 22:01:32 10° NW 22:10:41 57° NNE 22:19:51 10° E daylight
24 Feb - 00:06:44 10° WNW 00:15:50 61° SW 00:25:04 10° SE daylight
24 Feb - 02:15:04 10° W 02:19:28 14° WSW 02:23:56 10° SSW visible
24 Feb - 15:22:16 10° SSW 15:31:16 45° SE 15:40:02 10° ENE daylight
24 Feb - 17:26:32 10° WSW 17:36:03 68° NNW 17:45:21 10° NE daylight
24 Feb - 19:33:34 10° WNW 19:42:23 42° N 19:51:06 10° ENE daylight
24 Feb - 21:39:53 10° NW 21:49:00 55° NNE 21:58:07 10° E daylight
24 Feb - 23:45:05 10° WNW 23:54:13 64° SW 00:03:30 10° SE daylight
25 Feb - 01:52:59 10° W 01:57:55 16° WSW 02:02:54 10° SSW visible
25 Feb - 15:00:45 10° SSW 15:09:40 43° SE 15:18:20 10° ENE daylight
25 Feb - 17:04:49 10° WSW 17:14:22 70° NNW 17:23:43 10° NE daylight
25 Feb - 19:11:50 10° WNW 19:20:39 42° N 19:29:23 10° ENE daylight
25 Feb - 21:18:13 10° WNW 21:27:19 54° NNE 21:36:24 10° E daylight
25 Feb - 23:23:26 10° WNW 23:32:36 67° SW 23:41:54 10° SE daylight
26 Feb - 01:30:58 10° W 01:36:21 17° SW 01:41:48 10° SSW daylight
26 Feb - 14:39:15 10° SSW 14:48:04 41° SE 14:56:39 10° ENE daylight
26 Feb - 16:43:06 10° WSW 16:52:42 73° NNW 17:02:05 10° NE daylight
26 Feb - 18:50:05 10° WNW 18:58:56 43° N 19:07:41 10° ENE daylight
26 Feb - 20:56:33 10° WNW 21:05:37 52° NNE 21:14:40 10° E daylight
26 Feb - 23:01:46 10° WNW 23:11:00 71° SW 23:20:19 10° SE daylight
27 Feb - 01:09:01 10° W 01:14:47 18° SW 01:20:38 10° SSW daylight
27 Feb - 14:17:45 10° SSW 14:26:28 38° SE 14:34:57 10° ENE daylight
27 Feb - 16:21:23 10° WSW 16:31:03 76° NNW 16:40:27 10° NE daylight
27 Feb - 18:28:19 10° WNW 18:37:13 43° N 18:45:59 10° ENE daylight
27 Feb - 20:34:53 10° WNW 20:43:56 51° NNE 20:52:56 10° E daylight
27 Feb - 22:40:07 10° WNW 22:49:23 74° SW 22:58:43 10° SE daylight
28 Feb - 00:47:07 10° W 00:53:14 20° SW 00:59:25 10° SSW daylight
28 Feb - 13:56:16 10° SSW 14:04:53 36° SE 14:13:14 10° ENE daylight
28 Feb - 15:59:42 10° WSW 16:09:24 78° NNW 16:18:49 10° NE daylight
28 Feb - 18:06:34 10° W 18:15:30 44° N 18:24:18 10° ENE daylight
28 Feb - 20:13:12 10° WNW 20:22:14 50° NNE 20:31:12 10° E daylight
28 Feb - 22:18:28 10° WNW 22:27:46 77° SW 22:37:06 10° SE daylight
